,,PA_Meas_PMT16A,,PR_Meas_QMR101_102,,RH_Meas_QMH101,,SR_Meas_QMS101,,TA_Meas_QMH101,,GenWind,,GenWind,
time,status,PA,status,PR,status,RH,status,SR,status,TA,status,DirAvg,status,SpdAvg,
2011-12-11, 00:00:04,VALID,917.369,VALID,0,VALID,94.5075,VALID,0,VALID,20.5999,VALID,139,VALID,1.79375,
2011-12-11, 00:01:04,VALID,917.36,VALID,0,VALID,94.5075,VALID,0,VALID,20.6374,VALID,140,VALID,1.94258,
2011-12-11, 00:02:04,VALID,917.36,VALID,0,VALID,94.294,VALID,0,VALID,20.678,VALID,128,VALID,1.22617,
2011-12-11, 00:03:04,VALID,917.332,VALID,0,VALID,94.012,VALID,0,VALID,20.6569,VALID,135,VALID,1.45,
2011-12-11, 00:04:04,VALID,917.329,VALID,0,VALID,93.9052,VALID,0,VALID,20.6764,VALID,135,VALID,1.37188,
2011-12-11, 00:05:04,VALID,917.307,VALID,0,VALID,93.7375,VALID,0,VALID,20.6569,VALID,135,VALID,1.66953,
2011-12-11, 00:06:04,VALID,917.312,VALID,0,VALID,93.6308,VALID,0,VALID,20.6975,VALID,127,VALID,1.10312,
2011-12-11, 00:07:04,VALID,917.272,VALID,0,VALID,93.6003,VALID,0,VALID,20.6569,VALID,128,VALID,1.76367,
2011-12-11, 00:08:04,VALID,917.294,VALID,0,VALID,93.5851,VALID,0,VALID,20.6374,VALID,123,VALID,1.50781,
2011-12-11, 00:09:04,VALID,917.286,VALID,0,VALID,93.5164,VALID,0,VALID,20.6374,VALID,124,VALID,1.30938,
2011-12-11, 00:10:04,VALID,917.274,VALID,0,VALID,93.2725,VALID,0,VALID,20.6374,VALID,115,VALID,1.49844,
2011-12-11, 00:11:04,VALID,917.285,VALID,0,VALID,93.2649,VALID,0,VALID,20.639,VALID,131,VALID,1.58906,
2011-12-11, 00:12:04,VALID,917.259,VALID,0,VALID,93.1581,VALID,0,VALID,20.6569,VALID,128,VALID,1.73242,
2011-12-11, 00:13:04,VALID,917.262,VALID,0,VALID,92.9676,VALID,0,VALID,20.6585,VALID,124,VALID,1.16797,
2011-12-11, 00:14:04,VALID,917.213,VALID,0,VALID,92.9447,VALID,0,VALID,20.6374,VALID,130,VALID,1.64727,
2011-12-11, 00:15:04,VALID,917.17,VALID,0,VALID,93.1276,VALID,0,VALID,20.6585,VALID,133,VALID,2.025,
2011-12-11, 00:16:04,VALID,917.151,VALID,0,VALID,92.7084,VALID,0,VALID,20.7154,VALID,124,VALID,1.45078,
2011-12-11, 00:17:04,VALID,917.147,VALID,0,VALID,92.5635,VALID,0,VALID,20.717,VALID,124,VALID,1.44414,
2011-12-11, 00:18:04,VALID,917.084,VALID,0,VALID,92.3958,VALID,0,VALID,20.717,VALID,101,VALID,1.35625,
2011-12-11, 00:19:04,VALID,917.098,VALID,0,VALID,92.5102,VALID,0,VALID,20.678,VALID,108,VALID,1.19961,
2011-12-11, 00:20:04,VALID,917.089,VALID,0,VALID,92.6626,VALID,0,VALID,20.6585,VALID,117,VALID,1.23477,
2011-12-11, 00:21:04,VALID,917.071,VALID,0,VALID,92.6397,VALID,0,VALID,20.5789,VALID,111,VALID,1.03984,
2011-12-11, 00:22:04,VALID,917.091,VALID,0,VALID,92.9142,VALID,0,VALID,20.5609,VALID,115,VALID,1.27773,
2011-12-11, 00:23:04,VALID,917.053,VALID,0,VALID,93.303,VALID,0,VALID,20.5219,VALID,118,VALID,1.3293,
2011-12-11, 00:24:04,VALID,917.08,VALID,0,VALID,93.3106,VALID,0,VALID,20.5024,VALID,118,VALID,1.04375,
2011-12-11, 00:25:04,VALID,917.076,VALID,0,VALID,93.707,VALID,0.107441,VALID,20.4829,VALID,150,VALID,1.16367,
2011-12-11, 00:26:04,VALID,917.075,VALID,0,VALID,93.7528,VALID,0,VALID,20.4634,VALID,120,VALID,1.02148,
2011-12-11, 00:27:04,VALID,917.078,VALID,0,VALID,93.8747,VALID,0,VALID,20.4228,VALID,120,VALID,0.994141,
2011-12-11, 00:28:04,VALID,917.089,VALID,0,VALID,93.9586,VALID,0,VALID,20.4423,VALID,113,VALID,0.989844,
2011-12-11, 00:29:04,VALID,917.083,VALID,0,VALID,94.1187,VALID,0,VALID,20.4829,VALID,138,VALID,1.86094,
2011-12-11, 00:30:04,VALID,917.067,VALID,0,VALID,94.0653,VALID,0,VALID,20.5024,VALID,130,VALID,1.8457,
2011-12-11, 00:31:04,VALID,917.09,VALID,0,VALID,93.9738,VALID,0,VALID,20.4813,VALID,126,VALID,1.51523,
2011-12-11, 00:32:04,VALID,917.061,VALID,0,VALID,93.9967,VALID,0,VALID,20.5009,VALID,133,VALID,1.83867,
2011-12-11, 00:33:04,VALID,917.075,VALID,0,VALID,93.89,VALID,0,VALID,20.5414,VALID,133,VALID,1.28828,
2011-12-11, 00:34:04,VALID,917.062,VALID,0,VALID,94.0043,VALID,0,VALID,20.5219,VALID,130,VALID,1.73438,
2011-12-11, 00:35:04,VALID,917.034,VALID,0,VALID,93.9586,VALID,0,VALID,20.5024,VALID,130,VALID,1.09141,
2011-12-11, 00:36:04,VALID,917.038,VALID,0,VALID,93.8747,VALID,0,VALID,20.4829,VALID,130,VALID,1.19258,
2011-12-11, 00:37:04,VALID,917.014,VALID,0,VALID,94.0348,VALID,0,VALID,20.4618,VALID,132,VALID,1.81133,
2011-12-11, 00:38:04,VALID,917.008,VALID,0,VALID,94.0653,VALID,0,VALID,20.4829,VALID,125,VALID,1.72734,
2011-12-11, 00:39:04,VALID,916.974,VALID,0,VALID,94.073,VALID,0,VALID,20.4423,VALID,129,VALID,1.51797,
2011-12-11, 00:40:04,VALID,916.949,VALID,0,VALID,94.1492,VALID,0,VALID,20.4618,VALID,130,VALID,1.43242,
2011-12-11, 00:41:04,VALID,916.916,VALID,0,VALID,94.1873,VALID,0,VALID,20.5024,VALID,128,VALID,1.72773,
2011-12-11, 00:42:04,VALID,916.907,VALID,0,VALID,94.0653,VALID,0,VALID,20.5009,VALID,132,VALID,1.58711,
2011-12-11, 00:43:04,VALID,916.913,VALID,0,VALID,93.9205,VALID,0,VALID,20.5609,VALID,131,VALID,1.53086,
2011-12-11, 00:44:04,VALID,916.894,VALID,0,VALID,93.8366,VALID,0,VALID,20.5009,VALID,128,VALID,1.37266,
2011-12-11, 00:45:04,VALID,916.88,VALID,0,VALID,93.8824,VALID,0,VALID,20.5009,VALID,128,VALID,1.77656,
2011-12-11, 00:46:04,VALID,916.872,VALID,0,VALID,93.768,VALID,0,VALID,20.5009,VALID,128,VALID,1.3125,
2011-12-11, 00:47:04,VALID,916.861,VALID,0,VALID,93.707,VALID,0,VALID,20.5414,VALID,128,VALID,1.87109,
2011-12-11, 00:48:04,VALID,916.869,VALID,0,VALID,93.5927,VALID,0.107441,VALID,20.5399,VALID,128,VALID,1.48438,
2011-12-11, 00:49:04,VALID,916.879,VALID,0,VALID,93.3335,VALID,0,VALID,20.5594,VALID,127,VALID,1.03398,
2011-12-11, 00:50:04,VALID,916.873,VALID,0,VALID,93.3259,VALID,0.107441,VALID,20.5984,VALID,121,VALID,1.775,
2011-12-11, 00:51:04,VALID,916.851,VALID,0,VALID,93.2344,VALID,0,VALID,20.6179,VALID,125,VALID,1.71953,
2011-12-11, 00:52:04,VALID,916.825,VALID,0,VALID,93.1124,VALID,0,VALID,20.6179,VALID,130,VALID,1.45859,
2011-12-11, 00:53:04,VALID,916.814,VALID,0,VALID,93.0895,VALID,0,VALID,20.6374,VALID,137,VALID,1.75078,
2011-12-11, 00:54:04,VALID,916.815,VALID,0,VALID,92.8761,VALID,0,VALID,20.6569,VALID,137,VALID,1.41055,
2011-12-11, 00:55:04,VALID,916.782,VALID,0,VALID,92.777,VALID,0,VALID,20.6374,VALID,137,VALID,1.45391,
2011-12-11, 00:56:04,VALID,916.756,VALID,0,VALID,92.7236,VALID,0.107441,VALID,20.6179,VALID,137,VALID,1.26875,
2011-12-11, 00:57:04,VALID,916.768,VALID,0,VALID,92.9371,VALID,0.107441,VALID,20.5999,VALID,137,VALID,1.53789,
2011-12-11, 00:58:04,VALID,916.746,VALID,0,VALID,93.0362,VALID,0,VALID,20.5789,VALID,137,VALID,1.86875,
2011-12-11, 00:59:04,VALID,916.743,VALID,0,VALID,92.9371,VALID,0,VALID,20.6179,VALID,137,VALID,1.57617,
2011-12-11, 01:00:04,VALID,916.76,VALID,0,VALID,92.5483,VALID,0,VALID,20.6374,VALID,137,VALID,1.13398,
2011-12-11, 01:01:04,VALID,916.728,VALID,0,VALID,92.4415,VALID,0.107441,VALID,20.6374,VALID,137,VALID,1.5125,
2011-12-11, 01:02:04,VALID,916.715,VALID,0,VALID,92.4415,VALID,0,VALID,20.6374,VALID,137,VALID,1.44375,
2011-12-11, 01:03:04,VALID,916.677,VALID,0,VALID,92.3882,VALID,0,VALID,20.66,VALID,137,VALID,1.13203,
2011-12-11, 01:04:04,VALID,916.677,VALID,0,VALID,92.2891,VALID,0,VALID,20.639,VALID,137,VALID,0.881641,
2011-12-11, 01:05:04,VALID,916.649,VALID,0,VALID,92.3043,VALID,0,VALID,20.6405,VALID,137,VALID,0.885938,
2011-12-11, 01:06:04,VALID,916.618,VALID,0,VALID,92.6321,VALID,0,VALID,20.639,VALID,137,VALID,1.65977,
2011-12-11, 01:07:04,VALID,916.566,VALID,0,VALID,92.7465,VALID,0,VALID,20.6585,VALID,137,VALID,1.36055,
2011-12-11, 01:08:04,VALID,916.565,VALID,0,VALID,92.6626,VALID,0,VALID,20.6585,VALID,137,VALID,1.37109,
2011-12-11, 01:09:04,VALID,916.556,VALID,0,VALID,92.6093,VALID,0,VALID,20.6585,VALID,137,VALID,1.25664,
2011-12-11, 01:10:04,VALID,916.538,VALID,0,VALID,92.6779,VALID,0,VALID,20.639,VALID,137,VALID,1.29766,
2011-12-11, 01:11:04,VALID,916.535,VALID,0,VALID,92.7998,VALID,0,VALID,20.639,VALID,137,VALID,1.47187,
2011-12-11, 01:12:04,VALID,916.55,VALID,0,VALID,92.6702,VALID,0,VALID,20.5804,VALID,184,VALID,0.732422,
2011-12-11, 01:13:05,VALID,916.515,VALID,0,VALID,92.7312,VALID,0,VALID,20.5414,VALID,151,VALID,0.772656,
2011-12-11, 01:14:05,VALID,916.53,VALID,0,VALID,92.7846,VALID,0,VALID,20.5024,VALID,164,VALID,0.960938,
2011-12-11, 01:15:05,VALID,916.504,VALID,0,VALID,92.9752,VALID,0,VALID,20.4439,VALID,171,VALID,1.39102,
2011-12-11, 01:16:05,VALID,916.516,VALID,0,VALID,93.3564,VALID,0,VALID,20.3854,VALID,166,VALID,1.55508,
2011-12-11, 01:17:05,VALID,916.47,VALID,0,VALID,93.6613,VALID,0,VALID,20.3074,VALID,168,VALID,1.46563,
2011-12-11, 01:18:05,VALID,916.466,VALID,0,VALID,94.0348,VALID,0,VALID,20.2879,VALID,169,VALID,1.39609,
2011-12-11, 01:19:05,VALID,916.416,VALID,0,VALID,94.294,VALID,0,VALID,20.2083,VALID,166,VALID,1.05664,
2011-12-11, 01:20:05,VALID,916.399,VALID,0,VALID,94.4922,VALID,0.107441,VALID,20.1693,VALID,171,VALID,1.44375,
2011-12-11, 01:21:05,VALID,916.423,VALID,0,VALID,94.6371,VALID,0,VALID,20.1108,VALID,168,VALID,1.38633,
2011-12-11, 01:22:05,VALID,916.381,VALID,0,VALID,94.7667,VALID,0,VALID,20.0328,VALID,168,VALID,1.47227,
2011-12-11, 01:23:05,VALID,916.38,VALID,0,VALID,95.0564,VALID,0,VALID,20.0133,VALID,148,VALID,1.72812,
2011-12-11, 01:24:05,VALID,916.363,VALID,0,VALID,95.3613,VALID,0,VALID,20.0328,VALID,144,VALID,1.75195,
2011-12-11, 01:25:05,VALID,916.332,VALID,0,VALID,95.529,VALID,0,VALID,20.0913,VALID,164,VALID,1.1668,
2011-12-11, 01:26:05,VALID,916.269,VALID,0,VALID,95.5595,VALID,0,VALID,20.1303,VALID,155,VALID,1.01289,
2011-12-11, 01:27:05,VALID,916.238,VALID,0,VALID,95.5367,VALID,0,VALID,20.1303,VALID,129,VALID,0.976953,
2011-12-11, 01:28:05,VALID,916.237,VALID,0,VALID,95.5367,VALID,0.107441,VALID,20.1693,VALID,135,VALID,1.39297,
2011-12-11, 01:29:05,VALID,916.209,VALID,0,VALID,95.4909,VALID,0.107441,VALID,20.1888,VALID,150,VALID,1.35078,
2011-12-11, 01:30:05,VALID,916.178,VALID,0,VALID,95.5443,VALID,0,VALID,20.2278,VALID,144,VALID,1.85547,
2011-12-11, 01:31:05,VALID,916.161,VALID,0,VALID,95.4452,VALID,0.107441,VALID,20.2278,VALID,138,VALID,0.974219,
2011-12-11, 01:32:05,VALID,916.145,VALID,0,VALID,95.3766,VALID,0.107441,VALID,20.2278,VALID,145,VALID,0.916016,
2011-12-11, 01:33:05,VALID,916.118,VALID,0,VALID,95.2851,VALID,0,VALID,20.2489,VALID,164,VALID,0.705078,
2011-12-11, 01:34:05,VALID,916.102,VALID,0,VALID,95.2165,VALID,0,VALID,20.2489,VALID,155,VALID,0.664844,
2011-12-11, 01:35:05,VALID,916.148,VALID,0,VALID,95.1631,VALID,0,VALID,20.2489,VALID,169,VALID,0.746094,
2011-12-11, 01:36:05,VALID,916.1,VALID,0,VALID,95.0869,VALID,0,VALID,20.2504,VALID,169,VALID,1.13047,
2011-12-11, 01:37:05,VALID,916.068,VALID,0,VALID,95.0335,VALID,0,VALID,20.2098,VALID,169,VALID,0.876953,
2011-12-11, 01:38:05,VALID,916.072,VALID,0,VALID,94.9039,VALID,0,VALID,20.1903,VALID,169,VALID,0.749219,
2011-12-11, 01:39:05,VALID,916.068,VALID,0,VALID,94.8734,VALID,0,VALID,20.1123,VALID,169,VALID,0.792969,
2011-12-11, 01:40:05,VALID,916.028,VALID,0,VALID,94.9268,VALID,0,VALID,20.0928,VALID,154,VALID,1.25781,
2011-12-11, 01:41:05,VALID,915.999,VALID,0,VALID,95.0564,VALID,0,VALID,20.0343,VALID,154,VALID,1.26211,
2011-12-11, 01:42:05,VALID,915.984,VALID,0,VALID,95.1402,VALID,0,VALID,19.9758,VALID,154,VALID,0.778906,
2011-12-11, 01:43:05,VALID,915.982,VALID,0,VALID,95.2927,VALID,0,VALID,19.9563,VALID,148,VALID,1.65469,
2011-12-11, 01:44:05,VALID,915.957,VALID,0,VALID,95.4147,VALID,0,VALID,19.9758,VALID,137,VALID,1.61367,
2011-12-11, 01:45:05,VALID,915.941,VALID,0,VALID,95.4452,VALID,0,VALID,19.9758,VALID,147,VALID,1.3418,
2011-12-11, 01:46:05,VALID,915.923,VALID,0,VALID,95.3842,VALID,0,VALID,19.9758,VALID,140,VALID,1.16367,
2011-12-11, 01:47:05,VALID,915.883,VALID,0,VALID,95.3689,VALID,0,VALID,19.9968,VALID,141,VALID,1.61875,
2011-12-11, 01:48:05,VALID,915.868,VALID,0,VALID,95.3308,VALID,0.107441,VALID,20.0328,VALID,143,VALID,1.67227,
2011-12-11, 01:49:05,VALID,915.812,VALID,0,VALID,95.2088,VALID,0.107441,VALID,20.0913,VALID,136,VALID,1.78359,
2011-12-11, 01:50:05,VALID,915.799,VALID,0,VALID,95.0716,VALID,0.107441,VALID,20.0898,VALID,141,VALID,1.39141,
2011-12-11, 01:51:05,VALID,915.752,VALID,0,VALID,94.9878,VALID,0,VALID,20.1498,VALID,133,VALID,1.59531,
2011-12-11, 01:52:05,VALID,915.742,VALID,0,VALID,94.8429,VALID,0,VALID,20.1693,VALID,122,VALID,2.06328,
2011-12-11, 01:53:05,VALID,915.71,VALID,0,VALID,94.7514,VALID,0,VALID,20.2293,VALID,129,VALID,1.94492,
2011-12-11, 01:54:05,VALID,915.711,VALID,0,VALID,94.5151,VALID,0.107441,VALID,20.2668,VALID,123,VALID,2.19375,
2011-12-11, 01:55:05,VALID,915.727,VALID,0,VALID,94.2788,VALID,0,VALID,20.2863,VALID,124,VALID,2.37383,
2011-12-11, 01:56:05,VALID,915.742,VALID,0,VALID,94.0806,VALID,0.107441,VALID,20.3253,VALID,125,VALID,2.27031,
2011-12-11, 01:57:05,VALID,915.731,VALID,0,VALID,93.8671,VALID,0,VALID,20.3643,VALID,121,VALID,2.65195,
2011-12-11, 01:58:05,VALID,915.734,VALID,0,VALID,93.5088,VALID,0.107441,VALID,20.4618,VALID,130,VALID,2.74219,
2011-12-11, 01:59:05,VALID,915.754,VALID,0,VALID,93.0514,VALID,0,VALID,20.5204,VALID,121,VALID,2.58359,
2011-12-11, 02:00:05,VALID,915.768,VALID,0,VALID,92.6855,VALID,0,VALID,20.5399,VALID,112,VALID,1.91172,
2011-12-11, 02:01:05,VALID,915.821,VALID,0,VALID,92.5025,VALID,0.107441,VALID,20.5399,VALID,121,VALID,1.67109,
2011-12-11, 02:02:05,VALID,915.826,VALID,0,VALID,92.4187,VALID,0,VALID,20.5984,VALID,129,VALID,1.75156,
2011-12-11, 02:03:05,VALID,915.817,VALID,0,VALID,92.1214,VALID,0,VALID,20.6374,VALID,130,VALID,2.23008,
2011-12-11, 02:04:05,VALID,915.803,VALID,0,VALID,91.6563,VALID,0.107441,VALID,20.6959,VALID,131,VALID,2.16563,
2011-12-11, 02:05:05,VALID,915.848,VALID,0,VALID,91.4276,VALID,0,VALID,20.717,VALID,116,VALID,1.12578,
2011-12-11, 02:06:05,VALID,915.842,VALID,0,VALID,91.3438,VALID,0,VALID,20.6764,VALID,123,VALID,1.68086,
2011-12-11, 02:07:05,VALID,915.842,VALID,0,VALID,91.298,VALID,0.107441,VALID,20.6764,VALID,106,VALID,1.74258,
2011-12-11, 02:08:05,VALID,915.82,VALID,0,VALID,91.4505,VALID,0.107441,VALID,20.6374,VALID,111,VALID,1.28945,
2011-12-11, 02:09:05,VALID,915.81,VALID,0,VALID,91.7783,VALID,0,VALID,20.5984,VALID,133,VALID,1.69062,
2011-12-11, 02:10:05,VALID,915.78,VALID,0,VALID,91.9918,VALID,0,VALID,20.5789,VALID,118,VALID,1.76797,
2011-12-11, 02:11:05,VALID,915.763,VALID,0,VALID,92.0146,VALID,0.107441,VALID,20.5789,VALID,109,VALID,2.33203,
2011-12-11, 02:12:05,VALID,915.754,VALID,0,VALID,92.0299,VALID,0.107441,VALID,20.5399,VALID,104,VALID,1.83398,
2011-12-11, 02:13:05,VALID,915.736,VALID,0,VALID,92.2662,VALID,0,VALID,20.4813,VALID,96,VALID,1.22891,
2011-12-11, 02:14:05,VALID,915.736,VALID,0,VALID,92.4492,VALID,0,VALID,20.4228,VALID,98,VALID,1.32773,
2011-12-11, 02:15:05,VALID,915.733,VALID,0,VALID,92.5406,VALID,0,VALID,20.4033,VALID,103,VALID,1.45586,
2011-12-11, 02:16:05,VALID,915.746,VALID,0,VALID,92.594,VALID,0,VALID,20.3838,VALID,104,VALID,1.73867,
2011-12-11, 02:17:05,VALID,915.736,VALID,0,VALID,92.1061,VALID,0,VALID,20.5024,VALID,115,VALID,1.63125,
2011-12-11, 02:18:05,VALID,915.704,VALID,0,VALID,91.7402,VALID,0.107441,VALID,20.5789,VALID,112,VALID,1.74453,
2011-12-11, 02:19:05,VALID,915.727,VALID,0,VALID,91.6868,VALID,0,VALID,20.5789,VALID,116,VALID,1.58281,
2011-12-11, 02:20:05,VALID,915.705,VALID,0,VALID,91.8545,VALID,0.107441,VALID,20.5594,VALID,117,VALID,1.81133,
2011-12-11, 02:21:05,VALID,915.694,VALID,0,VALID,91.6868,VALID,0.107441,VALID,20.5804,VALID,107,VALID,2.68359,
2011-12-11, 02:22:05,VALID,915.71,VALID,0,VALID,91.4429,VALID,0,VALID,20.5984,VALID,124,VALID,1.82734,
2011-12-11, 02:23:05,VALID,915.703,VALID,0,VALID,91.7859,VALID,0,VALID,20.5789,VALID,115,VALID,1.58438,
2011-12-11, 02:24:05,VALID,915.729,VALID,0,VALID,92.1061,VALID,0.107441,VALID,20.5414,VALID,105,VALID,1.47773,
2011-12-11, 02:25:05,VALID,915.749,VALID,0,VALID,92.3577,VALID,0,VALID,20.4813,VALID,119,VALID,2.47148,
2011-12-11, 02:26:05,VALID,915.781,VALID,0,VALID,92.4263,VALID,0,VALID,20.5024,VALID,119,VALID,1.5293,
2011-12-11, 02:27:05,VALID,915.754,VALID,0,VALID,92.716,VALID,0,VALID,20.4423,VALID,134,VALID,1.87461,
2011-12-11, 02:28:05,VALID,915.797,VALID,0,VALID,92.9752,VALID,0,VALID,20.3838,VALID,126,VALID,1.42773,
2011-12-11, 02:29:05,VALID,915.822,VALID,0,VALID,93.0972,VALID,0,VALID,20.3643,VALID,133,VALID,1.00312,
2011-12-11, 02:30:05,VALID,915.793,VALID,0,VALID,93.1124,VALID,0.107441,VALID,20.3643,VALID,139,VALID,1.24922,
2011-12-11, 02:31:05,VALID,915.825,VALID,0,VALID,92.9828,VALID,0.107441,VALID,20.4033,VALID,145,VALID,1.30391,
2011-12-11, 02:32:05,VALID,915.847,VALID,0,VALID,92.7541,VALID,0.107441,VALID,20.4228,VALID,149,VALID,0.793359,
2011-12-11, 02:33:05,VALID,915.826,VALID,0,VALID,92.7236,VALID,0,VALID,20.4244,VALID,126,VALID,0.952734,
2011-12-11, 02:34:05,VALID,915.852,VALID,0,VALID,92.7236,VALID,0,VALID,20.4049,VALID,149,VALID,1.46406,
2011-12-11, 02:35:05,VALID,915.842,VALID,0,VALID,92.7465,VALID,0,VALID,20.4259,VALID,146,VALID,0.573828,
2011-12-11, 02:36:05,VALID,915.838,VALID,0,VALID,92.8532,VALID,0,VALID,20.4049,VALID,135,VALID,1.21992,
2011-12-11, 02:37:05,VALID,915.824,VALID,0,VALID,92.9066,VALID,0,VALID,20.3854,VALID,139,VALID,1.46094,
2011-12-11, 02:38:05,VALID,915.818,VALID,0,VALID,92.8151,VALID,0,VALID,20.4064,VALID,140,VALID,1.45078,
2011-12-11, 02:39:05,VALID,915.832,VALID,0,VALID,92.7312,VALID,0,VALID,20.4049,VALID,145,VALID,1.11445,
2011-12-11, 02:40:05,VALID,915.802,VALID,0,VALID,92.6397,VALID,0,VALID,20.3854,VALID,153,VALID,0.969531,
2011-12-11, 02:41:05,VALID,915.768,VALID,0,VALID,92.8151,VALID,0,VALID,20.3659,VALID,134,VALID,1.34648,
2011-12-11, 02:42:05,VALID,915.745,VALID,0,VALID,92.8989,VALID,0,VALID,20.3058,VALID,135,VALID,1.09336,
2011-12-11, 02:43:05,VALID,915.709,VALID,0,VALID,93.0362,VALID,0,VALID,20.2879,VALID,131,VALID,1.4082,
2011-12-11, 02:44:05,VALID,915.702,VALID,0,VALID,93.2572,VALID,0,VALID,20.2489,VALID,135,VALID,1.15781,
2011-12-11, 02:45:05,VALID,915.685,VALID,0,VALID,93.4631,VALID,0,VALID,20.1903,VALID,143,VALID,1.45156,
2011-12-11, 02:46:05,VALID,915.699,VALID,0,VALID,93.6918,VALID,0,VALID,20.1708,VALID,144,VALID,1.325,
2011-12-11, 02:47:05,VALID,915.672,VALID,0,VALID,93.8976,VALID,0,VALID,20.1318,VALID,149,VALID,1.36172,
2011-12-11, 02:48:05,VALID,915.681,VALID,0,VALID,94.0348,VALID,0,VALID,20.1318,VALID,159,VALID,0.744141,
2011-12-11, 02:49:05,VALID,915.662,VALID,0,VALID,94.1339,VALID,0,VALID,20.1108,VALID,171,VALID,0.792188,
2011-12-11, 02:50:05,VALID,915.655,VALID,0,VALID,94.2178,VALID,0.107441,VALID,20.1318,VALID,162,VALID,1.05117,
2011-12-11, 02:51:05,VALID,915.631,VALID,0,VALID,94.2483,VALID,0.107441,VALID,20.1108,VALID,151,VALID,0.816797,
2011-12-11, 02:52:05,VALID,915.665,VALID,0,VALID,94.3017,VALID,0,VALID,20.1318,VALID,167,VALID,1.28789,
2011-12-11, 02:53:05,VALID,915.621,VALID,0,VALID,94.3931,VALID,0.107441,VALID,20.1318,VALID,167,VALID,1.02188,
2011-12-11, 02:54:05,VALID,915.609,VALID,0,VALID,94.4313,VALID,0,VALID,20.0913,VALID,167,VALID,1.02578,
2011-12-11, 02:55:05,VALID,915.577,VALID,0,VALID,94.4541,VALID,0.107441,VALID,20.0718,VALID,178,VALID,1.20117,
2011-12-11, 02:56:05,VALID,915.569,VALID,0,VALID,94.5685,VALID,0,VALID,20.0718,VALID,169,VALID,1.81445,
2011-12-11, 02:57:05,VALID,915.539,VALID,0,VALID,94.5609,VALID,0.107441,VALID,20.0133,VALID,169,VALID,1.45859,
2011-12-11, 02:58:05,VALID,915.521,VALID,0,VALID,94.7209,VALID,0,VALID,20.0343,VALID,169,VALID,1.12852,
2011-12-11, 02:59:05,VALID,915.519,VALID,0,VALID,94.7896,VALID,0,VALID,19.9743,VALID,169,VALID,1.29766,
2011-12-11, 03:00:05,VALID,915.508,VALID,0,VALID,94.8505,VALID,0,VALID,19.9758,VALID,161,VALID,1.31836,
2011-12-11, 03:01:05,VALID,915.479,VALID,0,VALID,94.8887,VALID,0,VALID,19.9563,VALID,161,VALID,0.555078,
2011-12-11, 03:02:05,VALID,915.474,VALID,0,VALID,94.9115,VALID,0,VALID,19.9368,VALID,161,VALID,0.908984,
2011-12-11, 03:03:05,VALID,915.473,VALID,0,VALID,94.9954,VALID,0,VALID,19.9563,VALID,161,VALID,1.12148,
2011-12-11, 03:04:05,VALID,915.475,VALID,0,VALID,95.003,VALID,0,VALID,19.9158,VALID,161,VALID,0.93125,
2011-12-11, 03:05:05,VALID,915.459,VALID,0,VALID,95.0106,VALID,0,VALID,19.9158,VALID,161,VALID,0.986328,
2011-12-11, 03:06:05,VALID,915.5,VALID,0,VALID,94.9725,VALID,0,VALID,19.9173,VALID,161,VALID,1.01484,
2011-12-11, 03:07:05,VALID,915.471,VALID,0,VALID,95.0716,VALID,0,VALID,19.9368,VALID,161,VALID,1.20625,
2011-12-11, 03:08:05,VALID,915.456,VALID,0,VALID,95.0945,VALID,0,VALID,19.9173,VALID,160,VALID,1.49102,
2011-12-11, 03:09:05,VALID,915.436,VALID,0,VALID,95.0792,VALID,0,VALID,19.9368,VALID,161,VALID,1.01641,
2011-12-11, 03:10:05,VALID,915.405,VALID,0,VALID,95.1631,VALID,0,VALID,19.9563,VALID,161,VALID,1.50664,
2011-12-11, 03:11:05,VALID,915.391,VALID,0,VALID,95.0792,VALID,0,VALID,19.9368,VALID,161,VALID,0.851563,
2011-12-11, 03:12:05,VALID,915.367,VALID,0,VALID,95.0335,VALID,0,VALID,19.9173,VALID,160,VALID,0.936719,
2011-12-11, 03:13:05,VALID,915.341,VALID,0,VALID,94.9801,VALID,0,VALID,19.8963,VALID,161,VALID,0.674219,
2011-12-11, 03:14:05,VALID,915.297,VALID,0,VALID,95.003,VALID,0,VALID,19.8963,VALID,160,VALID,1.45,
2011-12-11, 03:15:05,VALID,915.302,VALID,0,VALID,95.0792,VALID,0,VALID,19.8978,VALID,160,VALID,1.24141,
2011-12-11, 03:16:05,VALID,915.285,VALID,0,VALID,95.1555,VALID,0,VALID,19.8588,VALID,160,VALID,1.68828,
2011-12-11, 03:17:05,VALID,915.247,VALID,0,VALID,95.1326,VALID,0,VALID,19.8588,VALID,149,VALID,0.925781,
2011-12-11, 03:18:05,VALID,915.178,VALID,0,VALID,95.1021,VALID,0,VALID,19.7988,VALID,156,VALID,0.939062,
2011-12-11, 03:19:05,VALID,915.186,VALID,0,VALID,95.1631,VALID,0,VALID,19.7598,VALID,143,VALID,0.909766,
2011-12-11, 03:20:05,VALID,915.162,VALID,0,VALID,95.247,VALID,0,VALID,19.7988,VALID,140,VALID,1.39688,
2011-12-11, 03:21:05,VALID,915.139,VALID,0,VALID,95.2393,VALID,0,VALID,19.7808,VALID,151,VALID,1.10312,
2011-12-11, 03:22:05,VALID,915.105,VALID,0,VALID,95.3079,VALID,0,VALID,19.8003,VALID,137,VALID,1.21797,
2011-12-11, 03:23:05,VALID,915.099,VALID,0,VALID,95.3918,VALID,0,VALID,19.8198,VALID,132,VALID,1.6332,
2011-12-11, 03:24:05,VALID,915.073,VALID,0,VALID,95.4604,VALID,0,VALID,19.8198,VALID,140,VALID,0.931641,
2011-12-11, 03:25:05,VALID,915.058,VALID,0,VALID,95.4985,VALID,0,VALID,19.8393,VALID,129,VALID,1.3418,
2011-12-11, 03:26:05,VALID,915.068,VALID,0,VALID,95.4985,VALID,0.107441,VALID,19.8378,VALID,127,VALID,1.59414,
2011-12-11, 03:27:05,VALID,915.047,VALID,0,VALID,95.5062,VALID,0.107441,VALID,19.8393,VALID,128,VALID,1.55313,
2011-12-11, 03:28:05,VALID,915.025,VALID,0,VALID,95.5443,VALID,0,VALID,19.8393,VALID,134,VALID,1.70586,
2011-12-11, 03:29:05,VALID,915.019,VALID,0,VALID,95.5595,VALID,0,VALID,19.8183,VALID,130,VALID,1.48867,
2011-12-11, 03:30:05,VALID,914.993,VALID,0,VALID,95.5671,VALID,0,VALID,19.8393,VALID,135,VALID,1.77773,
2011-12-11, 03:31:05,VALID,914.993,VALID,0,VALID,95.4985,VALID,0,VALID,19.8198,VALID,135,VALID,1.33203,
2011-12-11, 03:32:05,VALID,914.995,VALID,0,VALID,95.5214,VALID,0,VALID,19.8198,VALID,141,VALID,1.71719,
2011-12-11, 03:33:05,VALID,915.023,VALID,0,VALID,95.4985,VALID,0,VALID,19.7598,VALID,122,VALID,1.61523,
2011-12-11, 03:34:05,VALID,915.028,VALID,0,VALID,95.4985,VALID,0,VALID,19.7613,VALID,125,VALID,1.25508,
2011-12-11, 03:35:05,VALID,915.037,VALID,0,VALID,95.5138,VALID,0,VALID,19.7418,VALID,159,VALID,1.16445,
2011-12-11, 03:36:05,VALID,915.055,VALID,0,VALID,95.5595,VALID,0,VALID,19.7208,VALID,141,VALID,1.13008,
2011-12-11, 03:37:05,VALID,915.068,VALID,0,VALID,95.5976,VALID,0,VALID,19.7418,VALID,150,VALID,1.54062,
2011-12-11, 03:38:05,VALID,915.105,VALID,0,VALID,95.5824,VALID,0,VALID,19.7403,VALID,143,VALID,1.03242,
2011-12-11, 03:39:05,VALID,915.107,VALID,0,VALID,95.5976,VALID,0.107441,VALID,19.7418,VALID,138,VALID,1.61836,
2011-12-11, 03:40:05,VALID,915.157,VALID,0,VALID,95.5443,VALID,0,VALID,19.7013,VALID,141,VALID,1.30508,
2011-12-11, 03:41:05,VALID,915.147,VALID,0,VALID,95.5671,VALID,0,VALID,19.7223,VALID,139,VALID,1.38867,
2011-12-11, 03:42:05,VALID,915.155,VALID,0,VALID,95.529,VALID,0.107441,VALID,19.6818,VALID,126,VALID,0.439844,
2011-12-11, 03:43:05,VALID,915.156,VALID,0,VALID,95.4833,VALID,0,VALID,19.6833,VALID,149,VALID,1.13203,